Location: Dodge City Community College Clyde Tombaugh Astronomy Center
(37.7756°N, 100.0412°W)
Time: 20:30:29
(UTC+00:00)

Cosmos 1500 Rocket - Pass Details

Date: 08 December 2021
Orbit: 602 x 632 km, 82.5° (Epoch: 16 January)

Event Time Altitude Azimuth Distance (km) Brightness Sun altitude
Rises 12:22:59 0° 193° (SSW) 2,903 7.1 -15.4°
Reaches altitude 10° 12:25:14 10° 196° (SSW) 2,003 6.2 -15.0°
Maximum altitude 12:29:38 65° 278° (W) 695 3.5 -14.2°
Drops below altitude 10° 12:34:06 10° 1° (N) 2,021 6.0 -13.4°
Sets 12:36:22 0° 4° (N) 2,932 6.9 -12.9°
